• In Belgien
  • Länderverzeichnis
  • Für 7 Tage
  • Wassertemperatur
  • Satellitenkarten
  • Wetterkarte
  • Widgets
  • user-avatar
    Anmelden

    Stündliche Wetter Begijnendijk

    Heute, 25 April, Mittwoch

    Zeit Temperatur Niederschläge Wind Luftdruck Luftfeuchtigkeit
    00:00 +13°C° 0 mm 4 m/S 755 mmHg 85%
    01:00 +13°C° 0,1 mm 5 m/S 755 mmHg 86%
    02:00 +11°C° 0,1 mm 6 m/S 755 mmHg 87%
    03:00 +11°C° 0,1 mm 6 m/S 755 mmHg 88%
    04:00 +11°C° 0,1 mm 6 m/S 755 mmHg 87%
    05:00 +11°C° 0,1 mm 6 m/S 755 mmHg 86%
    06:00 +11°C° 0,1 mm 6 m/S 756 mmHg 85%
    07:00 +11°C° 0,1 mm 6 m/S 756 mmHg 81%
    08:00 +11°C° 0,1 mm 6 m/S 756 mmHg 78%
    09:00 +13°C° 0,1 mm 6 m/S 757 mmHg 75%
    10:00 +13°C° 0,2 mm 6 m/S 757 mmHg 71%
    11:00 +14°C° 0,2 mm 6 m/S 757 mmHg 67%
    12:00 +14°C° 0,2 mm 6 m/S 757 mmHg 63%
    13:00 +14°C° 0,2 mm 6 m/S 757 mmHg 61%
    14:00 +14°C° 0,2 mm 7 m/S 757 mmHg 59%
    15:00 +14°C° 0,2 mm 7 m/S 757 mmHg 57%
    16:00 +12°C° 0,2 mm 7 m/S 757 mmHg 61%
    17:00 +11°C° 0,2 mm 6 m/S 757 mmHg 65%
    18:00 +10°C° 0,2 mm 6 m/S 758 mmHg 69%
    19:00 +10°C° 0 mm 5 m/S 758 mmHg 71%
    20:00 +9°C° 0 mm 5 m/S 758 mmHg 74%
    21:00 +8°C° 0 mm 5 m/S 759 mmHg 77%
    22:00 +8°C° 0 mm 5 m/S 759 mmHg 79%
    23:00 +7°C° 0 mm 5 m/S 759 mmHg 80%

    Morgen, 26 April, Donnerstag

    Zeit Temperatur Niederschläge Wind Luftdruck Luftfeuchtigkeit
    00:00 +7°C° 0 mm 5 m/S 759 mmHg 82%
    01:00 +7°C° 0 mm 5 m/S 759 mmHg 82%
    02:00 +7°C° 0 mm 5 m/S 759 mmHg 82%
    03:00 +6°C° 0 mm 5 m/S 759 mmHg 82%
    04:00 +7°C° 0 mm 6 m/S 760 mmHg 81%
    05:00 +7°C° 0 mm 6 m/S 760 mmHg 79%
    06:00 +7°C° 0 mm 6 m/S 760 mmHg 77%
    07:00 +8°C° 0 mm 7 m/S 760 mmHg 72%
    08:00 +9°C° 0 mm 7 m/S 761 mmHg 66%
    09:00 +11°C° 0 mm 7 m/S 761 mmHg 61%
    10:00 +11°C° 0,1 mm 7 m/S 761 mmHg 58%
    11:00 +12°C° 0,1 mm 7 m/S 761 mmHg 54%
    12:00 +14°C° 0,1 mm 7 m/S 761 mmHg 51%
    13:00 +14°C° 0,1 mm 7 m/S 761 mmHg 50%
    14:00 +14°C° 0,1 mm 7 m/S 761 mmHg 50%
    15:00 +14°C° 0,1 mm 6 m/S 761 mmHg 50%
    16:00 +13°C° 0,1 mm 5 m/S 761 mmHg 54%
    17:00 +12°C° 0,1 mm 4 m/S 760 mmHg 59%
    18:00 +12°C° 0,1 mm 3 m/S 760 mmHg 64%
    19:00 +10°C° 0 mm 3 m/S 761 mmHg 67%
    20:00 +9°C° 0 mm 3 m/S 761 mmHg 70%
    21:00 +8°C° 0 mm 3 m/S 761 mmHg 73%
    22:00 +7°C° 0 mm 3 m/S 761 mmHg 75%
    23:00 +7°C° 0 mm 2 m/S 760 mmHg 76%

    übermorgen, 27 April, Freitag

    Zeit Temperatur Niederschläge Wind Luftdruck Luftfeuchtigkeit
    00:00 +6°C° 0 mm 2 m/S 760 mmHg 78%
    01:00 +6°C° 0 mm 2 m/S 760 mmHg 77%
    02:00 +7°C° 0 mm 2 m/S 759 mmHg 76%
    03:00 +7°C° 0 mm 2 m/S 758 mmHg 75%
    04:00 +7°C° 0 mm 2 m/S 758 mmHg 75%
    05:00 +8°C° 0 mm 3 m/S 757 mmHg 74%
    06:00 +9°C° 0 mm 3 m/S 757 mmHg 73%
    07:00 +10°C° 0 mm 4 m/S 756 mmHg 69%
    08:00 +12°C° 0 mm 5 m/S 756 mmHg 65%
    09:00 +13°C° 0 mm 5 m/S 755 mmHg 61%
    10:00 +14°C° 0 mm 6 m/S 755 mmHg 58%
    11:00 +15°C° 0 mm 7 m/S 754 mmHg 55%
    12:00 +16°C° 0 mm 7 m/S 754 mmHg 52%
    13:00 +16°C° 0 mm 7 m/S 753 mmHg 55%
    14:00 +16°C° 0 mm 7 m/S 753 mmHg 58%
    15:00 +15°C° 0 mm 7 m/S 752 mmHg 61%
    16:00 +14°C° 0,1 mm 7 m/S 752 mmHg 63%
    17:00 +12°C° 0,1 mm 8 m/S 752 mmHg 65%
    18:00 +12°C° 0,1 mm 8 m/S 752 mmHg 67%
    19:00 +11°C° 0 mm 8 m/S 753 mmHg 67%
    20:00 +10°C° 0 mm 8 m/S 754 mmHg 67%
    21:00 +9°C° 0 mm 8 m/S 754 mmHg 67%
    22:00 +9°C° 0 mm 8 m/S 755 mmHg 70%
    23:00 +8°C° 0 mm 7 m/S 755 mmHg 73%

    28 April, Samstag

    Zeit Temperatur Niederschläge Wind Luftdruck Luftfeuchtigkeit
    00:00 +8°C° 0 mm 7 m/S 756 mmHg 75%
    01:00 +8°C° 0 mm 7 m/S 756 mmHg 75%
    02:00 +8°C° 0 mm 6 m/S 757 mmHg 75%
    03:00 +7°C° 0 mm 6 m/S 757 mmHg 74%
    04:00 +7°C° 0 mm 5 m/S 758 mmHg 75%
    05:00 +7°C° 0 mm 5 m/S 758 mmHg 76%
    06:00 +7°C° 0 mm 5 m/S 759 mmHg 77%
    07:00 +8°C° 0 mm 5 m/S 759 mmHg 74%
    08:00 +10°C° 0 mm 4 m/S 760 mmHg 70%
    09:00 +11°C° 0 mm 4 m/S 760 mmHg 66%
    10:00 +11°C° 0 mm 4 m/S 760 mmHg 62%
    11:00 +12°C° 0 mm 3 m/S 760 mmHg 58%
    12:00 +13°C° 0 mm 3 m/S 760 mmHg 54%
    13:00 +13°C° 0 mm 3 m/S 760 mmHg 51%
    14:00 +15°C° 0 mm 2 m/S 760 mmHg 49%
    15:00 +15°C° 0 mm 2 m/S 760 mmHg 46%
    16:00 +14°C° 0 mm 2 m/S 760 mmHg 50%
    17:00 +14°C° 0 mm 2 m/S 760 mmHg 55%
    18:00 +13°C° 0 mm 2 m/S 760 mmHg 59%
    19:00 +12°C° 0 mm 2 m/S 760 mmHg 62%
    20:00 +9°C° 0 mm 3 m/S 760 mmHg 65%
    21:00 +8°C° 0 mm 3 m/S 761 mmHg 67%
    22:00 +8°C° 0 mm 3 m/S 760 mmHg 69%
    23:00 +8°C° 0 mm 3 m/S 760 mmHg 71%

    29 April, Sonntag

    Zeit Temperatur Niederschläge Wind Luftdruck Luftfeuchtigkeit
    00:00 +8°C° 0 mm 3 m/S 760 mmHg 73%
    01:00 +7°C° 0 mm 4 m/S 760 mmHg 73%
    02:00 +7°C° 0 mm 4 m/S 759 mmHg 74%
    03:00 +6°C° 0 mm 4 m/S 759 mmHg 75%
    04:00 +7°C° 0,3 mm 5 m/S 758 mmHg 77%
    05:00 +7°C° 0,3 mm 5 m/S 758 mmHg 79%
    06:00 +7°C° 0,3 mm 6 m/S 758 mmHg 82%
    07:00 +7°C° 2,2 mm 6 m/S 758 mmHg 84%
    08:00 +7°C° 2,2 mm 6 m/S 757 mmHg 87%
    09:00 +7°C° 2,2 mm 6 m/S 757 mmHg 90%
    10:00 +8°C° 0,6 mm 6 m/S 757 mmHg 88%
    11:00 +9°C° 0,6 mm 7 m/S 757 mmHg 86%
    12:00 +9°C° 0,6 mm 7 m/S 756 mmHg 85%
    13:00 +10°C° 0,2 mm 7 m/S 756 mmHg 83%
    14:00 +11°C° 0,2 mm 7 m/S 755 mmHg 82%
    15:00 +11°C° 0,2 mm 7 m/S 754 mmHg 81%
    16:00 +11°C° 0,5 mm 6 m/S 754 mmHg 83%
    17:00 +11°C° 0,5 mm 6 m/S 754 mmHg 85%
    18:00 +10°C° 0,5 mm 6 m/S 754 mmHg 88%
    19:00 +10°C° 0,1 mm 6 m/S 754 mmHg 89%
    20:00 +10°C° 0,1 mm 5 m/S 754 mmHg 91%
    21:00 +9°C° 0,1 mm 5 m/S 754 mmHg 92%
    22:00 +10°C° 0 mm 5 m/S 754 mmHg 93%
    23:00 +11°C° 0 mm 4 m/S 753 mmHg 93%

    30 April, Montag

    Zeit Temperatur Niederschläge Wind Luftdruck Luftfeuchtigkeit
    00:00 +11°C° 0 mm 4 m/S 753 mmHg 94%
    01:00 +12°C° 0,5 mm 3 m/S 753 mmHg 94%
    02:00 +12°C° 0,5 mm 3 m/S 753 mmHg 95%
    03:00 +12°C° 0,5 mm 3 m/S 753 mmHg 96%
    04:00 +11°C° 0,6 mm 4 m/S 752 mmHg 95%
    05:00 +10°C° 0,6 mm 5 m/S 752 mmHg 95%
    06:00 +10°C° 0,6 mm 6 m/S 752 mmHg 94%
    07:00 +10°C° 0,5 mm 6 m/S 752 mmHg 93%
    08:00 +11°C° 0,5 mm 6 m/S 752 mmHg 92%
    09:00 +11°C° 0,5 mm 6 m/S 752 mmHg 91%
    10:00 +13°C° 0,6 mm 6 m/S 752 mmHg 90%
    11:00 +13°C° 0,6 mm 6 m/S 752 mmHg 89%
    12:00 +14°C° 0,6 mm 6 m/S 752 mmHg 88%
    13:00 +14°C° 0,3 mm 6 m/S 752 mmHg 87%
    14:00 +14°C° 0,3 mm 6 m/S 753 mmHg 86%
    15:00 +14°C° 0,3 mm 6 m/S 753 mmHg 85%
    16:00 +14°C° 0,1 mm 5 m/S 753 mmHg 85%
    17:00 +13°C° 0,1 mm 4 m/S 753 mmHg 84%
    18:00 +13°C° 0,1 mm 3 m/S 754 mmHg 84%
    19:00 +12°C° 0 mm 3 m/S 754 mmHg 86%
    20:00 +11°C° 0 mm 3 m/S 755 mmHg 89%
    21:00 +10°C° 0 mm 2 m/S 755 mmHg 92%
    22:00 +10°C° 0 mm 2 m/S 755 mmHg 92%
    23:00 +9°C° 0 mm 2 m/S 755 mmHg 92%
    Mehr zeigen